Probability
1 0 0 0 0 0 0 0 0 0 0 0 0 0 0 0 0 0 0 0 0 0 0 0 0 0 0 0 0 0 0 0 0 0 0 0 0 0
2 1 0 0 0 0 0 0 0 0 0 0 0 0 0 0 0 0 0 0 0 0 0 0 0 0 0 0 0 0 0 0 0 0 0 0 0 0
3 2 1 0 0 0 0 0 0 0 0 0 0 0 0 0 0 0 0 0 0 0 0 0 0 0 0 0 0 0 0 0 0 0 0 0 0 0
3 2 1 0 0 0 0 0 0 0 0 0 0 0 0 0 0 0 0 0 0 0 0 0 0 0 0 0 0 0 0 0 0 0 0 0 0 0
2 1 0 0 0 0 0 0 0 0 0 0 0 0 0 0 0 0 0 0 0 0 0 0 0 0 0 0 0 0 0 0 0 0 0 0 0 0
1 1 0 0 0 0 0 0 0 0 0 0 0 0 0 0 0 0 0 0 0 0 0 0 0 0 0 0 0 0 0 0 0 0 0 0 0 0
1 1 0 0 0 0 0 0 0 0 0 0 0 0 0 0 0 0 0 0 0 0 0 0 0 0 0 0 0 0 0 0 0 0 0 0 0 0
1 1 0 0 0 0 0 0 0 0 0 0 0 0 0 0 0 0 0 0 0 0 0 0 0 0 0 0 0 0 0 0 0 0 0 0 0 0
1 0 0 0 0 0 0 0 0 0 0 0 0 0 0 0 0 0 0 0 0 0 0 0 0 0 0 0 0 0 0 0 0 0 0 0 0 0
0 0 0 0 0 0 0 0 0 0 0 0 0 0 0 0 0 0 0 0 0 0 0 0 0 0 0 0 0 0 0 0 0 0 0 0 0 0
0 0 0 0 0 0 0 0 0 0 0 0 0 0 0 0 0 0 0 0 0 0 0 0 0 0 0 0 0 0 0 0 0 0 0 0 0 0
0 0 0 0 0 0 0 0 0 0 0 0 0 0 0 0 0 0 0 0 0 0 0 0 0 0 0 0 0 0 0 0 0 0 0 0 0 0
0 0 0 0 0 0 0 0 0 0 0 0 0 0 0 0 0 0 0 0 0 0 0 0 0 0 0 0 0 0 0 0 0 0 0 0 0 0
0 0 0 0 0 0 0 0 0 0 0 0 0 0 0 0 0 0 0 0 0 0 0 0 0 0 0 0 0 0 0 0 0 0 0 0 0 0
0 0 0 0 0 0 0 0 0 0 0 0 0 0 0 0 0 0 0 0 0 0 0 0 0 0 0 0 0 0 0 0 0 0 0 0 0 0
0 0 0 0 0 0 0 0 0 0 0 0 0 0 0 0 0 0 0 0 0 0 0 0 0 0 0 0 0 0 0 0 0 0 0 0 0 0
0 0 0 0 0 0 0 0 0 0 0 0 0 0 0 0 0 0 0 0 0 0 0 0 0 0 0 0 0 0 0 0 0 0 0 0 0 0
0 0 0 0 0 0 0 0 0 0 0 0 0 0 0 0 0 0 0 0 0 0 0 0 0 0 0 0 0 0 0 0 0 0 0 0 0 0
0 0 0 0 0 0 0 0 0 0 0 0 0 0 0 0 0 0 0 0 0 0 0 0 0 0 0 0 0 0 0 0 0 0 0 0 0 0
0 0 0 0 0 0 0 0 0 0 0 0 0 0 0 0 0 0 0 0 0 0 0 0 0 0 0 0 0 0 0 0 0 0 0 0 0 0
0 0 0 0 0 0 0 0 0 0 0 0 0 0 0 0 0 0 0 0 0 0 0 0 0 0 0 0 0 0 0 0 0 0 0 0 0 0
0 0 0 0 0 0 0 0 0 0 0 0 0 0 0 0 0 0 0 0 0 0 0 0 0 0 0 0 0 0 0 0 0 0 0 0 0 0
0 0 0 0 0 0 0 0 0 0 0 0 0 0 0 0 0 0 0 0 0 0 0 0 0 0 0 0 0 0 0 0 0 0 0 0 0 0
Wind_Speed
4 3 2 2 2 2 2 3 4 2 3 4 2 3 3 3 6 6 5 10 13 13 12 12 12 12 12 11 11 11 10 10 10 10 10 10 10 10
3 4 3 2 1 1 2 2 3 4 3 3 3 3 3 4 6 5 6 10 13 13 13 13 13 12 12 12 12 12 12 12 12 11 11 11 11 11
4 5 4 3 2 2 1 2 2 3 3 3 2 2 2 3 3 3 4 5 5 11 12 13 13 13 13 13 13 13 13 13 13 13 13 12 12 12
5 5 5 3 3 2 2 2 2 3 3 3 2 2 2 3 3 4 4 5 5 9 12 13 13 14 14 14 14 13 14 14 14 13 13 14 14 14
6 6 5 4 4 3 3 3 2 2 2 2 3 2 2 1 1 3 4 3 5 7 10 12 13 13 14 14 14 14 14 14 14 14 14 14 14 14
5 5 5 5 6 5 4 4 3 2 1 1 2 2 2 2 1 2 3 3 4 4 6 6 8 10 12 13 13 13 14 14 14 14 14 15 14 14
4 4 5 6 7 5 4 4 3 3 2 2 3 2 2 2 2 2 3 3 4 3 3 3 3 3 5 8 10 12 13 13 14 14 14 14 15 15
4 3 3 4 5 6 6 6 6 5 4 3 3 4 4 4 3 3 3 2 4 2 2 4 2 4 4 4 7 10 11 11 12 12 13 14 14 15
4 3 2 2 3 3 4 5 6 7 7 5 5 6 5 5 4 4 4 4 5 3 2 4 3 4 4 5 8 9 10 10 11 11 12 13 14 14
2 3 2 2 1 2 2 2 3 4 5 5 6 6 6 5 5 5 5 4 4 3 3 4 3 4 5 4 7 10 10 10 11 11 12 12 13 13
1 1 1 1 1 1 1 2 3 4 4 5 6 7 8 8 5 2 2 2 4 4 3 3 3 3 4 4 6 8 9 9 10 11 11 11 11 10
1 1 1 0 1 0 1 2 3 4 3 3 3 4 5 5 6 5 4 4 4 4 3 3 3 2 3 4 3 3 4 8 10 11 11 11 11 6
1 1 1 2 2 2 1 2 3 3 2 2 3 3 3 2 2 3 3 4 4 5 3 2 3 2 3 4 4 4 4 5 5 6 9 11 11 8
0 0 1 3 3 3 2 1 2 2 1 1 2 3 3 3 3 3 4 4 5 6 6 3 3 4 4 5 5 4 4 4 4 5 5 7 9 11
1 2 3 3 3 2 3 3 2 1 1 1 2 3 3 3 3 3 4 4 4 5 5 4 4 4 4 5 5 5 5 5 5 5 5 5 5 5
2 3 4 5 3 2 3 2 1 1 1 2 3 3 3 3 3 3 3 3 3 5 5 4 5 5 5 6 6 6 5 4 4 5 6 6 6 5
2 3 3 3 4 3 3 2 2 1 1 2 2 3 3 3 3 3 2 2 3 4 5 4 4 4 6 6 6 7 6 6 6 5 5 7 7 6
4 3 3 2 2 2 2 2 2 2 2 2 2 3 3 4 4 4 3 3 4 5 5 5 4 4 4 5 7 6 5 6 6 6 5 6 9 7
4 3 2 2 2 2 2 2 2 3 2 2 3 3 3 3 4 4 4 4 5 5 5 4 3 3 6 8 6 6 5 6 6 6 5 6 8 8
3 2 2 2 2 2 3 2 3 3 3 2 2 3 3 3 4 4 4 5 5 6 5 4 4 4 5 7 6 6 7 6 5 7 7 6 7 9
3 3 2 2 2 2 2 2 3 3 3 3 3 3 4 4 4 5 5 7 6 5 6 6 6 8 5 4 5 6 6 7 8 7 7 7 7 6
3 3 3 3 3 3 3 2 3 3 3 3 3 4 4 4 5 6 5 6 5 6 7 7 6 5 4 5 7 8 8 8 8 11 12 11 6 5
3 3 3 4 4 4 4 3 4 3 3 3 4 4 5 5 5 5 6 6 6 7 7 6 5 4 5 5 6 7 10 10 7 7 8 10 13 16
Wind_Direction
187 186 188 204 189 183 170 160 156 186 257 267 261 240 216 206 208 201 209 217 218 221 224 228 231 233 234 236 238 240 242 245 248 251 255 258 262 266
192 190 198 205 196 184 177 172 165 167 213 251 245 243 214 211 208 204 216 221 223 226 229 232 235 237 239 240 240 241 242 244 246 248 250 252 256 259
201 195 209 201 194 195 174 164 171 161 195 260 261 264 210 217 207 219 227 225 232 235 237 239 241 242 243 244 244 244 245 246 247 248 249 250 251 253
208 204 216 205 202 204 188 185 189 182 180 232 270 265 235 228 218 222 229 227 230 240 241 244 246 247 247 247 247 247 247 248 249 250 250 250 250 251
206 205 213 200 211 212 203 202 207 198 176 196 247 261 266 260 245 253 249 249 246 246 244 244 246 248 249 250 250 250 251 252 253 253 252 251 250 251
208 205 205 200 209 210 209 212 207 202 192 199 239 257 261 265 224 248 271 261 261 264 260 255 252 253 254 254 255 255 254 254 254 253 252 251 250 251
211 207 208 208 208 207 207 207 199 201 211 223 243 255 257 255 241 235 247 265 267 254 263 268 267 268 266 261 257 256 256 255 255 255 254 252 250 249
213 219 216 216 219 215 213 205 194 201 216 223 235 238 248 240 240 237 240 254 272 259 238 268 248 259 264 257 262 264 263 260 259 259 258 256 254 252
208 218 230 227 217 224 229 229 227 226 215 209 227 238 240 234 229 241 235 232 242 245 217 264 261 260 262 265 263 264 265 266 268 267 265 262 258 255
194 194 200 235 244 213 217 230 246 252 241 228 231 243 244 239 226 234 240 248 259 256 203 246 258 256 266 263 263 263 266 270 273 272 270 267 264 262
168 150 164 177 260 200 194 248 277 282 275 259 255 261 264 261 246 231 242 247 269 268 217 223 253 266 270 268 267 266 270 277 279 279 276 272 267 264
62 40 91 143 327 72 189 229 267 279 302 315 303 294 282 276 260 233 230 238 254 270 243 217 249 259 283 271 266 273 278 278 277 274 274 273 271 263
73 6 344 350 348 329 260 224 246 274 292 293 301 310 314 306 293 264 242 233 241 252 250 216 243 236 237 274 282 270 264 269 273 272 274 273 271 255
108 295 306 345 358 357 355 309 298 312 320 330 322 310 308 302 295 288 273 258 247 253 266 244 240 243 252 265 272 273 270 266 263 268 271 275 272 264
24 355 357 360 6 6 6 355 352 1 352 318 296 287 280 281 291 300 299 289 279 268 269 254 250 261 251 258 267 265 277 276 262 264 270 267 266 264
33 23 19 15 14 356 352 359 2 330 284 280 282 283 292 299 295 289 289 299 298 290 280 265 252 248 258 261 263 271 265 263 272 273 273 272 266 255
41 40 37 29 23 15 7 355 352 356 324 303 300 302 304 304 298 297 286 288 283 286 295 294 276 255 246 251 261 263 267 269 268 273 277 281 275 264
70 55 35 25 19 2 350 344 342 327 310 302 300 298 301 301 300 300 292 284 282 281 282 285 297 307 304 275 237 253 263 267 271 271 264 274 282 275
60 41 23 4 349 341 336 326 317 310 309 307 303 305 304 303 303 303 301 295 288 284 282 285 287 283 295 297 281 238 254 276 279 279 271 265 276 279
41 22 359 345 339 334 330 321 314 320 324 317 312 308 305 304 305 302 299 295 295 295 295 292 276 264 266 279 282 279 260 261 274 283 286 283 275 274
13 6 351 338 331 333 330 325 323 324 325 322 316 313 310 305 299 296 293 292 291 292 293 289 280 279 276 275 282 285 279 262 257 267 282 290 292 290
7 1 355 354 352 350 346 345 343 336 333 329 321 317 312 306 300 299 297 296 292 288 290 292 296 296 281 276 285 290 294 297 287 275 262 249 260 271
8 5 4 2 359 349 343 342 337 326 323 320 317 312 310 306 300 296 294 291 292 293 295 297 298 291 283 277 283 288 289 294 298 302 294 278 263 257